Date String (YYYY-MM-DD hh:mm:ss) UTC,Instrument flags,Ambient pressure (hPa),Sample flow (lpm),Bypass flow (lpm),Sample temperature (°C),Ambient temperature (°C),ASC tube jacket temperature (°C),LED temperature (°C),Box temperature (°C),Sample RH (%),Span deviation,Mass concentration (μg/m³),Mass concentration (μg/m³),Mass concentration (μg/m³)
DateTimeUTC,F1_M11,P_M11,Q1_M11,Q2_M11,T1_M11,T2_M11,T3_M11,T4_M11,T5_M11,U1_M11,ZSPAN_M11,X2_M11,X0_M11,X1_M11
2023-01-13 02:00:00,,0833.8,5.00,0.00,25.5,23.5,00.0,34.5,27.1,12.2,-000.4,0014.43,0022.15,0013.49
2023-01-13 02:01:00,,0833.8,5.00,0.00,25.4,23.4,00.0,34.5,27.0,12.4,-000.8,0014.52,0022.23,0013.57
2023-01-13 02:02:00,,0833.8,4.99,0.00,25.4,23.3,00.0,34.5,27.0,12.6,-000.6,0014.67,0022.56,0013.71
2023-01-13 02:03:00,,0833.7,5.00,0.00,25.3,23.2,00.0,34.4,26.9,12.6,-000.4,0014.82,0022.77,0013.86
2023-01-13 02:04:00,,0833.7,5.00,0.00,25.3,23.1,00.0,34.4,26.9,12.5,-000.2,0015.00,0023.02,0014.01
2023-01-13 02:05:00,,0833.7,5.00,0.00,25.3,23.1,00.0,34.4,26.9,12.6,-000.3,0015.05,0023.04,0014.04
2023-01-13 02:06:00,,0833.7,5.01,0.00,25.2,23.1,00.0,34.3,26.9,12.5,-000.3,0015.04,0022.78,0014.08
2023-01-13 02:07:00,,0833.7,5.00,0.00,25.2,23.2,00.0,34.3,26.9,12.5,-000.3,0015.11,0022.72,0014.13
2023-01-13 02:08:00,,0833.7,5.01,0.00,25.2,23.3,00.0,34.3,26.9,12.5,-000.3,0015.11,0022.63,0014.15
2023-01-13 02:09:00,,0833.7,4.99,0.00,25.2,23.2,00.0,34.2,26.9,12.5,-000.0,0015.18,0022.94,0014.19
2023-01-13 02:10:00,,0833.7,4.98,0.00,25.1,23.2,00.0,34.2,26.8,12.6,-000.1,0015.21,0023.23,0014.23
2023-01-13 02:11:00,,0833.7,5.00,0.00,25.1,23.1,00.0,34.2,26.7,12.6,-000.0,0015.26,0023.15,0014.25
2023-01-13 02:12:00,,0833.7,4.99,0.00,25.1,23.0,00.0,34.2,26.7,12.5,-000.0,0015.28,0023.55,0014.28
2023-01-13 02:13:00,,0833.7,5.01,0.00,25.0,22.9,00.0,34.1,26.7,12.5,0000.1,0015.22,0023.71,0014.25
2023-01-13 02:14:00,,0833.7,5.00,0.00,25.0,23.0,00.0,34.1,26.7,12.6,0000.2,0015.26,0024.58,0014.27
2023-01-13 02:15:00,,0833.8,5.01,0.00,25.0,23.0,00.0,34.1,26.7,12.7,0000.2,0015.24,0024.88,0014.30
2023-01-13 02:16:00,,0833.8,5.00,0.00,25.0,23.0,00.0,34.1,26.7,12.8,0000.2,0015.21,0024.82,0014.29
2023-01-13 02:17:00,,0833.7,4.99,0.00,25.0,23.0,00.0,34.0,26.7,12.8,0000.3,0015.22,0024.90,0014.27
2023-01-13 02:18:00,,0833.7,5.00,0.00,25.0,22.9,00.0,34.0,26.6,12.8,0000.4,0015.18,0024.98,0014.25
2023-01-13 02:19:00,,0833.7,5.01,0.00,24.9,22.8,00.0,34.0,26.6,12.9,0000.4,0015.17,0025.08,0014.25
2023-01-13 02:20:00,,0833.7,5.00,0.00,24.9,22.7,00.0,34.0,26.5,12.9,0000.5,0015.14,0024.68,0014.23
2023-01-13 02:21:00,,0833.7,5.00,0.00,24.9,22.7,00.0,33.9,26.5,12.9,0000.5,0015.19,0024.32,0014.23
2023-01-13 02:22:00,,0833.6,5.00,0.00,24.9,22.7,00.0,33.9,26.5,13.0,0000.4,0015.19,0024.06,0014.23
2023-01-13 02:23:00,,0833.6,5.00,0.00,24.9,22.8,00.0,33.9,26.6,13.0,0000.5,0015.18,0024.31,0014.23
2023-01-13 02:24:00,,0833.6,5.00,0.00,24.8,22.8,00.0,33.9,26.6,13.1,0000.4,0015.22,0024.18,0014.26
2023-01-13 02:25:00,,0833.7,5.00,0.00,24.8,22.9,00.0,33.8,26.6,13.1,0000.2,0015.20,0023.34,0014.27
2023-01-13 02:26:00,,0833.7,5.00,0.00,24.8,22.9,00.0,33.8,26.6,13.1,0000.3,0015.16,0022.88,0014.24
2023-01-13 02:27:00,,0833.6,5.00,0.00,24.8,22.8,00.0,33.8,26.5,13.1,0000.4,0015.18,0023.02,0014.25
2023-01-13 02:28:00,,0833.7,5.00,0.00,24.8,22.8,00.0,33.8,26.4,13.1,0000.2,0015.17,0023.00,0014.26
2023-01-13 02:29:00,,0833.6,5.00,0.00,24.8,22.7,00.0,33.8,26.4,13.1,0000.2,0015.19,0022.81,0014.30
2023-01-13 02:30:00,,0833.6,5.00,0.00,24.7,22.7,00.0,33.7,26.4,13.1,0000.1,0015.16,0022.63,0014.30
2023-01-13 02:31:00,,0833.7,5.00,0.00,24.7,22.7,00.0,33.7,26.4,13.1,0000.0,0015.17,0022.71,0014.32
2023-01-13 02:32:00,,0833.6,5.00,0.00,24.7,22.7,00.0,33.7,26.4,13.2,0000.1,0015.14,0022.61,0014.34
2023-01-13 02:33:00,,0833.7,5.01,0.00,24.7,22.7,00.0,33.7,26.4,13.1,0000.1,0015.13,0022.49,0014.36
2023-01-13 02:34:00,,0833.7,5.00,0.00,24.7,22.7,00.0,33.6,26.4,13.1,-000.0,0015.10,0021.66,0014.34
2023-01-13 02:35:00,,0833.7,5.01,0.00,24.7,22.7,00.0,33.6,26.4,13.1,-000.1,0015.05,0021.45,0014.33
2023-01-13 02:36:00,,0833.7,5.00,0.00,24.6,22.7,00.0,33.6,26.4,13.2,-000.1,0015.06,0021.42,0014.35
2023-01-13 02:37:00,,0833.7,5.00,0.00,24.6,22.7,00.0,33.6,26.4,13.2,-000.3,0015.09,0021.49,0014.37
2023-01-13 02:38:00,,0833.7,5.00,0.00,24.6,22.7,00.0,33.6,26.4,13.3,-000.3,0015.09,0021.57,0014.36
2023-01-13 02:39:00,,0833.7,5.01,0.00,24.6,22.7,00.0,33.6,26.4,13.3,-000.0,0015.11,0021.72,0014.39
2023-01-13 02:40:00,,0833.7,5.01,0.00,24.6,22.8,00.0,33.6,26.4,13.3,-000.1,0015.12,0021.78,0014.41
2023-01-13 02:41:00,,0833.7,5.00,0.00,24.6,22.8,00.0,33.5,26.4,13.3,-000.1,0015.19,0022.05,0014.46
2023-01-13 02:42:00,,0833.7,5.00,0.00,24.6,22.7,00.0,33.5,26.3,13.4,-000.1,0015.20,0021.98,0014.49
2023-01-13 02:43:00,,0833.7,4.99,0.00,24.6,22.7,00.0,33.5,26.3,13.4,-000.2,0015.22,0022.09,0014.51
2023-01-13 02:44:00,,0833.7,5.00,0.00,24.6,22.6,00.0,33.5,26.3,13.4,-000.2,0015.27,0022.26,0014.55
2023-01-13 02:45:00,,0833.6,5.00,0.00,24.5,22.6,00.0,33.5,26.3,13.5,-000.0,0015.28,0022.24,0014.59
2023-01-13 02:46:00,,0833.6,5.00,0.00,24.5,22.5,00.0,33.5,26.2,13.4,-000.0,0015.32,0022.26,0014.64
2023-01-13 02:47:00,,0833.6,5.01,0.00,24.5,22.5,00.0,33.5,26.2,13.3,0000.1,0015.25,0022.59,0014.57
2023-01-13 02:48:00,,0833.6,5.00,0.00,24.5,22.5,00.0,33.4,26.2,13.3,0000.0,0015.22,0022.98,0014.52
2023-01-13 02:49:00,,0833.6,5.00,0.00,24.5,22.5,00.0,33.4,26.2,13.3,-000.1,0015.20,0023.12,0014.50
2023-01-13 02:50:00,,0833.6,5.01,0.00,24.4,22.4,00.0,33.4,26.2,13.3,-000.2,0015.16,0023.17,0014.44
2023-01-13 02:51:00,,0833.6,5.00,0.00,24.4,22.3,00.0,33.4,26.1,13.4,-000.2,0015.15,0023.31,0014.39
2023-01-13 02:52:00,,0833.6,4.99,0.00,24.4,22.2,00.0,33.4,26.0,13.6,-000.1,0015.12,0023.38,0014.36
2023-01-13 02:53:00,,0833.6,5.00,0.00,24.3,22.1,00.0,33.3,26.0,13.6,-000.1,0015.12,0023.65,0014.34
2023-01-13 02:54:00,,0833.6,4.99,0.00,24.3,22.1,00.0,33.3,25.9,13.7,-000.2,0015.06,0023.52,0014.31
2023-01-13 02:55:00,,0833.6,5.00,0.00,24.3,22.1,00.0,33.3,25.9,13.7,-000.3,0014.99,0023.39,0014.24
2023-01-13 02:56:00,,0833.6,5.00,0.00,24.2,22.2,00.0,33.3,25.9,13.7,-000.5,0014.92,0023.34,0014.18
2023-01-13 02:57:00,,0833.5,4.99,0.00,24.2,22.3,00.0,33.2,26.0,13.7,-000.6,0014.91,0023.86,0014.16
2023-01-13 02:58:00,,0833.6,5.00,0.00,24.2,22.3,00.0,33.2,25.9,13.7,-000.6,0014.98,0023.87,0014.21
2023-01-13 02:59:00,,0833.6,5.00,0.00,24.2,22.2,00.0,33.2,25.9,13.7,-000.6,0014.97,0023.45,0014.24
